BAW146 EBOS-EHAM

Flight info

Callsign BAW146
Flight time 0h 28m
Altitude 11000
Route EBOS08 COA L179 HELEN2A EHAM06
Aircraft A20N/M-SDE2E3FGHIRWXY/LB1

Departure

Time 2026-04-28 19:27
Airport Ostend-Bruges International Airport (EBOS)

Arrival

Time 2026-04-28 19:55
Airport Amsterdam Airport Schiphol (EHAM)
Time Latitude Longitude Altitude Speed Heading
2026-04-28 18:59 51.20164 2.86882 5 ft 0 kts 167°
2026-04-28 19:14 51.20173 2.86879 14 ft 5 kts 168°
2026-04-28 19:14 51.20207 2.86869 14 ft 5 kts 182°
2026-04-28 19:14 51.20241 2.86897 16 ft 6 kts 252°
2026-04-28 19:15 51.20244 2.86916 14 ft 0 kts 259°
2026-04-28 19:16 51.20243 2.86910 15 ft 2 kts 259°
2026-04-28 19:17 51.20239 2.86877 16 ft 4 kts 257°
2026-04-28 19:17 51.20228 2.86809 14 ft 9 kts 256°
2026-04-28 19:17 51.20199 2.86714 15 ft 10 kts 211°
2026-04-28 19:17 51.20130 2.86697 14 ft 10 kts 186°
2026-04-28 19:18 51.20059 2.86681 14 ft 10 kts 199°
2026-04-28 19:18 51.20023 2.86603 14 ft 8 kts 257°
2026-04-28 19:18 51.20009 2.86509 15 ft 10 kts 256°
2026-04-28 19:18 51.19989 2.86390 14 ft 12 kts 255°
2026-04-28 19:19 51.19976 2.86302 14 ft 12 kts 261°
2026-04-28 19:19 51.19958 2.86169 14 ft 12 kts 256°
2026-04-28 19:19 51.19939 2.86037 14 ft 12 kts 256°
2026-04-28 19:19 51.19918 2.85905 14 ft 12 kts 256°
2026-04-28 19:20 51.19898 2.85773 15 ft 12 kts 256°
2026-04-28 19:20 51.19878 2.85640 15 ft 13 kts 257°
2026-04-28 19:20 51.19857 2.85499 15 ft 13 kts 256°
2026-04-28 19:20 51.19829 2.85348 15 ft 15 kts 239°
2026-04-28 19:21 51.19789 2.85291 15 ft 0 kts 217°
2026-04-28 19:25 51.19783 2.85283 15 ft 4 kts 217°
2026-04-28 19:26 51.19732 2.85261 14 ft 11 kts 169°
2026-04-28 19:26 51.19665 2.85321 14 ft 8 kts 94°
2026-04-28 19:26 51.19678 2.85442 13 ft 13 kts 78°
2026-04-28 19:26 51.19731 2.85772 14 ft 77 kts 75°
2026-04-28 19:27 51.19933 2.87121 16 ft 169 kts 76°
2026-04-28 19:27 51.20162 2.89112 891 ft 178 kts 77°
2026-04-28 19:27 51.20408 2.90906 2259 ft 166 kts 75°
2026-04-28 19:27 51.20695 2.92601 3530 ft 162 kts 74°
2026-04-28 19:28 51.21006 2.94433 4454 ft 181 kts 74°
2026-04-28 19:28 51.21338 2.96482 5077 ft 201 kts 75°
2026-04-28 19:28 51.21689 2.98769 5589 ft 227 kts 76°
2026-04-28 19:28 51.22178 3.01248 6619 ft 236 kts 66°
2026-04-28 19:29 51.22940 3.03569 7669 ft 247 kts 57°
2026-04-28 19:29 51.23570 3.05192 8170 ft 263 kts 58°
2026-04-28 19:29 51.24871 3.08596 9565 ft 276 kts 58°
2026-04-28 19:29 51.25872 3.11264 10614 ft 287 kts 58°
2026-04-28 19:30 51.26938 3.14131 11173 ft 312 kts 59°
2026-04-28 19:30 51.28089 3.17236 11705 ft 335 kts 59°
2026-04-28 19:30 51.29290 3.20497 12076 ft 342 kts 59°
2026-04-28 19:30 51.30490 3.23787 12182 ft 344 kts 59°
2026-04-28 19:31 51.31698 3.27086 12193 ft 344 kts 59°
2026-04-28 19:31 51.32909 3.30384 12192 ft 343 kts 59°
2026-04-28 19:31 51.34168 3.33627 12198 ft 343 kts 54°
2026-04-28 19:31 51.35696 3.36546 12198 ft 343 kts 45°
2026-04-28 19:32 51.37484 3.39065 12205 ft 342 kts 38°
2026-04-28 19:32 51.39310 3.41443 12206 ft 341 kts 39°
2026-04-28 19:32 51.41156 3.43890 12210 ft 341 kts 39°
2026-04-28 19:32 51.42981 3.46328 12202 ft 341 kts 40°
2026-04-28 19:33 51.44773 3.48732 12017 ft 338 kts 40°
2026-04-28 19:33 51.46559 3.51152 11574 ft 334 kts 40°
2026-04-28 19:33 51.48327 3.53564 11000 ft 332 kts 40°
2026-04-28 19:33 51.50073 3.55960 10489 ft 327 kts 41°
2026-04-28 19:34 51.51757 3.58277 10319 ft 311 kts 41°
2026-04-28 19:34 51.53356 3.60484 10202 ft 295 kts 41°
2026-04-28 19:34 51.54867 3.62589 10021 ft 283 kts 41°
2026-04-28 19:34 51.56339 3.64641 9595 ft 279 kts 41°
2026-04-28 19:35 51.57809 3.66671 9156 ft 277 kts 41°
2026-04-28 19:35 51.59266 3.68683 8734 ft 274 kts 42°
2026-04-28 19:35 51.60707 3.70671 8307 ft 272 kts 42°
2026-04-28 19:35 51.62138 3.72645 7894 ft 269 kts 42°
2026-04-28 19:36 51.63550 3.74594 7496 ft 266 kts 42°
2026-04-28 19:36 51.64928 3.76498 7284 ft 265 kts 42°
2026-04-28 19:36 51.66338 3.78452 7233 ft 267 kts 42°
2026-04-28 19:36 51.67743 3.80400 7227 ft 266 kts 41°
2026-04-28 19:37 51.69118 3.82291 7229 ft 265 kts 41°
2026-04-28 19:37 51.70074 3.83603 7231 ft 266 kts 42°
2026-04-28 19:37 51.71938 3.86173 7228 ft 266 kts 42°
2026-04-28 19:37 51.73338 3.88118 7232 ft 266 kts 42°
2026-04-28 19:38 51.74734 3.90077 7231 ft 265 kts 43°
2026-04-28 19:38 51.76130 3.92040 7236 ft 265 kts 43°
2026-04-28 19:38 51.77511 3.93963 7240 ft 266 kts 42°
2026-04-28 19:38 51.78930 3.95938 7236 ft 265 kts 43°
2026-04-28 19:39 51.80304 3.97870 7240 ft 265 kts 43°
2026-04-28 19:39 51.81695 3.99831 7242 ft 265 kts 43°
2026-04-28 19:39 51.82928 4.01565 7240 ft 266 kts 43°
2026-04-28 19:39 51.84317 4.03513 7245 ft 259 kts 43°
2026-04-28 19:40 51.85636 4.05356 7243 ft 243 kts 43°
2026-04-28 19:40 51.86836 4.07032 7244 ft 230 kts 43°
2026-04-28 19:40 51.88047 4.08728 7246 ft 234 kts 43°
2026-04-28 19:40 51.89288 4.10469 7245 ft 232 kts 43°
2026-04-28 19:41 51.90504 4.12132 7238 ft 233 kts 36°
2026-04-28 19:41 51.92025 4.13031 7252 ft 238 kts 13°
2026-04-28 19:41 51.93661 4.13473 7242 ft 237 kts 12°
2026-04-28 19:41 51.95279 4.13905 7098 ft 235 kts 12°
2026-04-28 19:42 51.96892 4.14337 6815 ft 235 kts 12°
2026-04-28 19:42 51.98503 4.14769 6497 ft 234 kts 12°
2026-04-28 19:42 52.00110 4.15199 6174 ft 234 kts 12°
2026-04-28 19:42 52.01171 4.15479 5969 ft 233 kts 12°
2026-04-28 19:43 52.03260 4.16019 5821 ft 220 kts 12°
2026-04-28 19:43 52.04734 4.16394 5719 ft 212 kts 12°
2026-04-28 19:43 52.06147 4.16924 5483 ft 207 kts 27°
2026-04-28 19:43 52.07304 4.18241 5291 ft 200 kts 48°
2026-04-28 19:44 52.08162 4.19955 5219 ft 190 kts 57°
2026-04-28 19:44 52.08860 4.21701 5171 ft 177 kts 60°
2026-04-28 19:44 52.09491 4.23371 4770 ft 175 kts 60°
2026-04-28 19:44 52.10134 4.25059 4377 ft 173 kts 60°
2026-04-28 19:45 52.10773 4.26727 4258 ft 177 kts 60°
2026-04-28 19:45 52.11331 4.28181 4248 ft 174 kts 60°
2026-04-28 19:45 52.11968 4.29838 4145 ft 170 kts 60°
2026-04-28 19:45 52.12589 4.31458 3790 ft 169 kts 60°
2026-04-28 19:46 52.13216 4.33086 3395 ft 168 kts 62°
2026-04-28 19:46 52.13809 4.34628 3259 ft 153 kts 61°
2026-04-28 19:46 52.14353 4.36040 3053 ft 143 kts 62°
2026-04-28 19:46 52.14877 4.37413 2707 ft 142 kts 62°
2026-04-28 19:47 52.15394 4.38759 2386 ft 141 kts 62°
2026-04-28 19:47 52.15911 4.40100 2080 ft 138 kts 62°
2026-04-28 19:47 52.16417 4.41417 1988 ft 142 kts 62°
2026-04-28 19:47 52.16938 4.42773 1986 ft 141 kts 62°
2026-04-28 19:48 52.17460 4.44126 1989 ft 141 kts 62°
2026-04-28 19:48 52.17979 4.45472 1992 ft 141 kts 61°
2026-04-28 19:48 52.18493 4.46808 1997 ft 138 kts 61°
2026-04-28 19:48 52.19003 4.48133 2003 ft 139 kts 62°
2026-04-28 19:49 52.19518 4.49470 2004 ft 139 kts 62°
2026-04-28 19:49 52.20026 4.50784 2011 ft 135 kts 60°
2026-04-28 19:49 52.20483 4.51961 1997 ft 114 kts 61°
2026-04-28 19:49 52.20896 4.53044 1997 ft 111 kts 62°
2026-04-28 19:50 52.21714 4.55167 2002 ft 111 kts 62°
2026-04-28 19:50 52.22125 4.56231 2002 ft 111 kts 62°
2026-04-28 19:50 52.22535 4.57292 1997 ft 111 kts 62°
2026-04-28 19:51 52.22946 4.58356 2001 ft 110 kts 62°
2026-04-28 19:51 52.23354 4.59413 1996 ft 110 kts 62°
2026-04-28 19:51 52.23761 4.60465 1890 ft 110 kts 62°
2026-04-28 19:51 52.24171 4.61526 1749 ft 110 kts 62°
2026-04-28 19:52 52.24582 4.62589 1600 ft 110 kts 62°
2026-04-28 19:52 52.24984 4.63628 1448 ft 110 kts 61°
2026-04-28 19:52 52.25394 4.64689 1306 ft 111 kts 62°
2026-04-28 19:52 52.25810 4.65765 1151 ft 113 kts 60°
2026-04-28 19:53 52.26228 4.66842 997 ft 112 kts 60°
2026-04-28 19:53 52.26641 4.67908 837 ft 111 kts 60°
2026-04-28 19:53 52.27058 4.68990 698 ft 115 kts 59°
2026-04-28 19:53 52.27490 4.70103 549 ft 114 kts 58°
2026-04-28 19:54 52.27916 4.71203 393 ft 116 kts 57°
2026-04-28 19:54 52.28343 4.72304 241 ft 117 kts 55°
2026-04-28 19:54 52.28781 4.73438 90 ft 116 kts 57°
2026-04-28 19:54 52.29059 4.74152 -1 ft 112 kts 57°
2026-04-28 19:55 52.29452 4.75103 -5 ft 54 kts 56°
2026-04-28 19:55 52.29625 4.75565 -2 ft 37 kts 56°
2026-04-28 19:55 52.29802 4.75817 -3 ft 35 kts 23°
2026-04-28 19:55 52.29904 4.75905 -6 ft 0 kts 31°
2026-04-28 19:56 52.29925 4.75924 -5 ft 7 kts 30°
2026-04-28 19:56 52.29976 4.75972 -4 ft 10 kts 30°
2026-04-28 19:56 52.30028 4.76081 -5 ft 15 kts 59°
2026-04-28 19:57 52.30093 4.76245 -3 ft 18 kts 44°
2026-04-28 19:57 52.30142 4.76356 -3 ft 19 kts 62°
2026-04-28 19:57 52.30209 4.76547 -3 ft 13 kts 57°
2026-04-28 19:57 52.30266 4.76695 -4 ft 18 kts 58°
2026-04-28 19:58 52.30339 4.76895 -6 ft 20 kts 58°
2026-04-28 19:58 52.30387 4.77018 -7 ft 9 kts 56°
2026-04-28 19:58 52.30424 4.77109 -7 ft 9 kts 57°
2026-04-28 19:58 52.30465 4.77147 -6 ft 5 kts 15°
2026-04-28 19:59 52.30492 4.77141 -6 ft 3 kts 338°
2026-04-28 19:59 52.30510 4.77125 -6 ft 3 kts 330°
2026-04-28 19:59 52.30529 4.77107 -6 ft 4 kts 329°
2026-04-28 19:59 52.30564 4.77074 -5 ft 7 kts 328°
2026-04-28 20:00 52.30599 4.77037 -4 ft 5 kts 327°
2026-04-28 20:00 52.30624 4.77011 -3 ft 4 kts 327°
2026-04-28 20:00 52.30645 4.76981 -3 ft 5 kts 307°
2026-04-28 20:00 52.30667 4.76889 -3 ft 12 kts 303°
2026-04-28 20:01 52.30720 4.76772 -4 ft 13 kts 294°
2026-04-28 20:01 52.30748 4.76678 -3 ft 7 kts 300°
2026-04-28 20:01 52.30791 4.76621 -5 ft 9 kts 343°
2026-04-28 20:01 52.30806 4.76619 -4 ft 0 kts 358°